Galicia — ECEC — position and weather

sailwx.info

Track history (hours):
 
Tides and Currents Weather Stations Pressure Air Temp Water Temp Dewpoint Dewpoint Depression Visibility Wind Speed Wind Dir Waves Ship Positions

Galicia

Last reported at 2014-Oct-22 13:29 UTC. Time now 2014-Oct-22 21:42 UTC.
Position N 37°17' W 000°58'.

Length 149 m; draft 5.2 m.

Type: Cargo ship. MMSI: 224548000.

Date/timePositionNaut miles runAvg speedWind from/ knotsBaromVisibWave heightAir tempDewpointWater temp
2014-Oct-22 13:29N 37°17' W 000°58'1011.0
2014-Oct-22 12:33N 37°24' W 000°49'1111.1
2014-Oct-22 11:32N 37°31' W 000°38'1110.9
2014-Oct-22 10:33N 37°40' W 000°29'1211.2
2014-Oct-22 09:31N 37°49' W 000°21'1415.2
2014-Oct-22 08:33N 38°01' W 000°11'16516.3
2014-Oct-21 22:25N 40°25' E 001°34'38 1.4
2014-Oct-20 19:17N 39°50' E 001°14'14311.1
2014-Oct-20 06:27N 37°47' W 000°18'1314.5
2014-Oct-20 05:33N 37°36' W 000°28'1514.5
2014-Oct-20 04:31N 37°26' W 000°41'1414.3
2014-Oct-20 03:33N 37°17' W 000°54'22113.8
2014-Oct-19 11:33N 36°00' W 005°12'1111.3
2014-Oct-19 10:33N 35°58' W 005°26'7611.9
2014-Oct-19 04:08N 35°20' W 006°46'1415.5
2014-Oct-19 03:15N 35°11' W 006°59'1115.7
2014-Oct-19 02:33N 35°03' W 007°09'1616.1
2014-Oct-19 01:33N 34°53' W 007°24'1616.0
2014-Oct-19 00:33N 34°43' W 007°39'  
Track history (hours):
 
Tides and Currents Weather Stations Pressure Air Temp Water Temp Dewpoint Dewpoint Depression Visibility Wind Speed Wind Dir Waves Ship Positions

Galicia

Last reported at 2014-Oct-22 13:29 UTC. Time now 2014-Oct-22 21:42 UTC.
Position N 37°17' W 000°58'.

Length 149 m; draft 5.2 m.

Type: Cargo ship. MMSI: 224548000.

Date/timePositionNaut miles runAvg speedWind from/ knotsBaromVisibWave heightAir tempDewpointWater temp
2014-Oct-22 13:29N 37°17' W 000°58'1011.0
2014-Oct-22 12:33N 37°24' W 000°49'1111.1
2014-Oct-22 11:32N 37°31' W 000°38'1110.9
2014-Oct-22 10:33N 37°40' W 000°29'1211.2
2014-Oct-22 09:31N 37°49' W 000°21'1415.2
2014-Oct-22 08:33N 38°01' W 000°11'16516.3
2014-Oct-21 22:25N 40°25' E 001°34'38 1.4
2014-Oct-20 19:17N 39°50' E 001°14'14311.1
2014-Oct-20 06:27N 37°47' W 000°18'1314.5
2014-Oct-20 05:33N 37°36' W 000°28'1514.5
2014-Oct-20 04:31N 37°26' W 000°41'1414.3
2014-Oct-20 03:33N 37°17' W 000°54'22113.8
2014-Oct-19 11:33N 36°00' W 005°12'1111.3
2014-Oct-19 10:33N 35°58' W 005°26'7611.9
2014-Oct-19 04:08N 35°20' W 006°46'1415.5
2014-Oct-19 03:15N 35°11' W 006°59'1115.7
2014-Oct-19 02:33N 35°03' W 007°09'1616.1
2014-Oct-19 01:33N 34°53' W 007°24'1616.0
2014-Oct-19 00:33N 34°43' W 007°39'  

Dump ship's entire track history